Location: Prairie State College
(41.5244°N, 87.6382°W)
Time: 04:23:46
(UTC-05:00)

ISS - All Passes

Search period start: 27 June 2016 00:00
Search period end: 07 July 2016 00:00
Orbit: 402 x 403 km, 51.6° (Epoch: 27 June)

Date Brightness Start Highest point End Pass type
(mag) Time Alt. Az. Time Alt. Az. Time Alt. Az.
27 Jun - 08:27:03 10° S 08:29:04 15° SE 08:31:04 10° E daylight
27 Jun - 10:01:56 10° WSW 10:05:10 61° NNW 10:08:25 10° NE daylight
27 Jun - 11:39:50 10° WNW 11:42:07 17° NNW 11:44:25 10° NNE daylight
27 Jun - 13:17:35 10° NNW 13:19:32 15° N 13:21:30 10° NE daylight
27 Jun - 14:53:40 10° NW 14:56:43 34° NNE 14:59:44 10° E daylight
27 Jun - 16:30:11 10° WNW 16:33:07 31° SW 16:36:02 10° SSE daylight
28 Jun - 09:09:11 10° SW 09:12:25 71° SE 09:15:41 10° ENE daylight
28 Jun - 10:46:30 10° WNW 10:49:08 22° NNW 10:51:48 10° NE daylight
28 Jun - 12:24:39 10° NNW 12:26:29 14° N 12:28:18 10° NE daylight
28 Jun - 14:01:04 10° NW 14:03:48 24° NNE 14:06:31 10° ENE daylight
28 Jun - 15:37:13 10° WNW 15:40:28 62° SW 15:43:40 10° SE daylight
29 Jun - 08:16:44 10° SSW 08:19:44 35° SE 08:22:46 10° ENE daylight
29 Jun - 09:53:14 10° W 09:56:12 31° NNW 09:59:11 10° NE daylight
29 Jun - 11:31:30 10° NW 11:33:24 14° N 11:35:19 10° NNE daylight
29 Jun - 13:08:27 10° NNW 13:10:48 18° NNE 13:13:11 10° ENE daylight
29 Jun - 14:44:27 10° NW 14:47:43 69° NNE 14:50:57 10° ESE daylight
29 Jun - 16:22:04 10° W 16:23:46 14° SW 16:25:28 10° SSW daylight
30 Jun - 07:24:47 10° S 07:27:08 19° SE 07:29:30 10° E daylight
30 Jun - 09:00:08 10° WSW 09:03:20 51° NNW 09:06:32 10° NE daylight
30 Jun - 10:38:09 10° NW 10:40:21 16° NNW 10:42:32 10° NNE daylight
30 Jun - 12:15:44 10° NNW 12:17:46 15° N 12:19:48 10° NE daylight
30 Jun - 13:51:46 10° NW 13:54:53 39° NNE 13:57:58 10° E daylight
30 Jun - 15:28:26 10° WNW 15:31:12 25° SW 15:33:58 10° SSE daylight
01 Jul - 08:07:16 10° SW 08:10:32 86° SE 08:13:49 10° NE daylight
01 Jul - 09:44:46 10° WNW 09:47:19 20° NNW 09:49:52 10° NNE daylight
01 Jul - 11:22:50 10° NNW 11:24:41 14° N 11:26:31 10° NE daylight
01 Jul - 12:59:08 10° NW 13:01:58 26° NNE 13:04:46 10° E daylight
01 Jul - 14:35:22 10° WNW 14:38:33 50° SW 14:41:43 10° SE daylight
02 Jul - 07:14:41 10° SSW 07:17:48 43° SE 07:20:56 10° ENE daylight
02 Jul - 08:51:28 10° W 08:54:20 28° NNW 08:57:14 10° NE daylight
02 Jul - 10:29:44 10° NW 10:31:35 14° N 10:33:27 10° NNE daylight
02 Jul - 12:06:30 10° NNW 12:08:57 19° NNE 12:11:26 10° ENE daylight
02 Jul - 13:42:31 10° NW 13:45:48 83° NE 13:49:03 10° ESE daylight
02 Jul - 15:20:48 10° WSW 15:21:47 11° SW 15:22:46 10° SSW daylight
03 Jul - 06:22:33 10° S 06:25:09 22° SE 06:27:46 10° E daylight
03 Jul - 07:58:17 10° WSW 08:01:25 43° NNW 08:04:34 10° NE daylight
03 Jul - 09:36:24 10° NW 09:38:30 16° N 09:40:35 10° NNE daylight
03 Jul - 11:13:47 10° NNW 11:15:55 16° N 11:18:02 10° NE daylight
03 Jul - 12:49:48 10° NW 12:52:59 45° NNE 12:56:08 10° ESE daylight
03 Jul - 14:26:39 10° W 14:29:13 21° SW 14:31:46 10° S daylight
04 Jul - 05:31:20 10° SSE 05:32:34 12° SE 05:33:49 10° ESE daylight
04 Jul - 07:05:19 10° WSW 07:08:34 79° NW 07:11:51 10° NE daylight
04 Jul - 08:43:00 10° WNW 08:45:25 19° NNW 08:47:52 10° NNE daylight
04 Jul - 10:20:56 10° NNW 10:22:49 14° N 10:24:41 10° NE daylight
04 Jul - 11:57:08 10° NW 12:00:03 29° NNE 12:02:57 10° E daylight
04 Jul - 13:33:28 10° WNW 13:36:33 40° SW 13:39:39 10° SSE daylight
05 Jul - 06:12:37 10° SW 06:15:48 53° SE 06:18:59 10° ENE daylight
05 Jul - 07:49:37 10° W 07:52:25 25° NNW 07:55:12 10° NE daylight
05 Jul - 09:27:52 10° NW 09:29:42 14° N 09:31:31 10° NNE daylight
05 Jul - 11:04:28 10° NNW 11:07:03 21° NNE 11:09:38 10° ENE daylight
05 Jul - 12:40:32 10° NW 12:43:48 82° SW 12:47:04 10° SE daylight
06 Jul - 05:20:18 10° SSW 05:23:06 27° SE 05:25:55 10° ENE daylight
06 Jul - 06:56:23 10° W 06:59:27 37° NNW 07:02:32 10° NE daylight
06 Jul - 08:34:34 10° NW 08:36:34 15° N 08:38:36 10° NNE daylight
06 Jul - 10:11:46 10° NNW 10:14:00 17° NNE 10:16:12 10° NE daylight
06 Jul - 11:47:46 10° NW 11:50:58 53° NNE 11:54:11 10° ESE daylight
06 Jul - 13:24:53 10° W 13:27:09 18° SW 13:29:25 10° S daylight
